CZ-6A DEB

Satellite information

Favourite Embed

Satellite Type and Status

DEBRISIN ORBIT

Key statistics

Satellite CZ-6A DEB at a glance.

Uptime

1032

Days in orbit

Revolutions

≈ 14.6

Per day

Orbit

SSO

Sun Synchronous Orbit

Inclination

98.7

Latest

Satellite identification and parameters

Extended collection of information and parameters for CZ-6A DEB.

Object identification

Identified? True

Debris? True

Object name: CZ-6A DEB

International designator: 2022-151AAF

Object number (NORAD): 55883

Object ID (CCSDS): 55883

Country: PEOPLES REPUBLIC OF CHINA (PRC)

Current information (Y/N): Y

RCS size: SMALL

Orbital parameters

Period: 98.404 minutes

Inclination: 98.6991 deg

SMA: 7060.494 km

Apoapsis: 771.578 km

Periapsis: 593.139 km

RAAN: 319.6965 deg

Eccentricy: 0.01263646

Argument of periapsis: 36.0216 deg

Mean anomaly: 324.9418 deg

Mean motion: 14.63356572 rev/day

Mean motion (dot): 0.00006604 rev/day2

B* drag term: 0.0011480721 1/REarth

Two-line elements (TLE)

Creation date: Sept. 8, 2025, 3:16 a.m.

Reference frame: TEME

Reference center: EARTH

Epoch: Sept. 7, 2025, 10:54 a.m. UTC

TLE line 0: 0 CZ-6A DEB

TLE line 1: 1 55883U 22151AAF 25250.45456893 .00006604 00000-0 11481-2 0 9991

TLE line 2: 2 55883 98.6991 319.6965 0126365 36.0216 324.9418 14.63356572137210

Live tracking on map

Real-time ground track for satellite CZ-6A DEB.

In-orbit conjunctions

A list of the most updated potential collisions computed for object CZ-6A DEB.

Target Orbit TCA Probability of collision Miss distance Type
SL-14 R/B LEO 2025-08-14 19:23:29 0.0001141858 722.0 (m) ROCKET BODY
COSMOS 1275 DEB LEO 2025-06-23 16:29:15 0.0002927946 44.0 (m) DEBRIS
SL-8 R/B LEO 2024-12-17 05:52:00 0.0001488184 769.0 (m) ROCKET BODY

Associated space launch

Chinese satellite reported for atmospheric/ocean/environmental/spatial parameter research purposes, details TBD.

CZ-6A DEB was lifted into orbit during the mission ‘Long March 6A | Yunhai 3’, on board a Long March 6A space rocket.

The launch took place on Nov. 11, 2022, 10:52 p.m. from Launch Complex 9A.

For more information about the launch, click the button.

Launch to space Long March 6A | Yunhai 3
Long March 6A | Yunhai 3

Agency: N/A

Status: Launch Successful

Launch date: Nov. 11, 2022, 10:52 p.m. UTC

Rocket: Long March 6A

Launch pad: Launch Complex 9A

Location: Taiyuan Satellite Launch Center, People's Republic of China

...

Latest news about this satellite

There are no fresh news available about this satellite. Check back as we update our databases every day.


Newsletter sign-up

Weekly statistics, charts and insights to help you stay on top of the space industry.